[[{"header":{"parameterUnit":"m.s-1","parameterCategory":1,"la1":30.2992,"la2":30.254,"lo1":-89.0895,"lo2":-89.0443,"dy":0.0025,"dx":0.0025,"nx":19,"ny":19,"refTime":"2026-04-12T03:00:00:Z","depth":0,"parameterNumber":2,"parameterNumberName":"U-component_of_WINDS"},"data":[0,0,0,-4.4423,-4.4427,-4.4592,-4.4593,-4.4806,-4.4808,0,0,0,0,0,0,0,0,0,0,0,-4.4377,-4.4378,-4.4423,-4.4427,-4.4592,-4.4593,-4.4806,-4.4808,0,0,0,0,0,0,0,0,0,0,0,-4.4376,-4.4378,-4.438,-4.4428,-4.4592,-4.4593,-4.4806,-4.468,0,0,0,0,0,0,0,0,0,0,-4.4519,-4.4478,-4.4377,-4.438,-4.4429,-4.4592,-4.4593,-4.4674,-4.4688,-4.4733,0,-4.4775,0,-4.4795,-4.4823,-4.4824,0,0,0,-4.4425,-4.4467,-4.4509,-4.438,-4.443,-4.4592,-4.4517,-4.4681,-4.4697,-4.4751,-4.4778,-4.4786,-4.4799,-4.4824,-4.4825,-4.5097,-4.5098,0,0,-4.4415,-4.4407,-4.4499,-4.452,-4.4496,-4.4512,-4.4522,-4.4691,-4.4719,-4.4779,-4.4791,-4.4802,-4.4826,-4.4827,-4.5095,-4.5097,0,0,0,-4.4391,-4.4401,-4.4439,-4.4511,-4.4541,-4.4517,-4.4529,-4.4711,-4.4724,-4.4793,-4.4805,-4.4827,-4.483,-4.5094,-4.5096,-4.5155,0,0,0,-4.4385,-4.4387,-4.4436,-4.4432,-4.4538,-4.4628,-4.4545,-4.4713,-4.4732,-4.4804,-4.4827,-4.4832,-4.5092,-4.5095,-4.515,-4.5183,0,0,0,-4.4365,-4.4384,-4.4409,-4.4431,-4.4502,-4.4626,-4.4649,-4.4717,-4.474,-4.4824,-4.4832,-4.5091,-4.5095,-4.5146,-4.5176,-4.5251,0,0,0,-4.434,-4.4459,-4.441,-4.4548,-4.4501,-4.4663,-4.4648,-4.4768,-4.4848,-4.4828,-4.5093,-4.5096,-4.5144,-4.5172,-4.5246,-4.531,-4.5337,0,0,-4.4485,-4.4476,-4.4558,-4.4519,-4.4687,-4.4638,-4.4814,-4.4894,-4.491,-4.5033,-4.504,-4.5152,-4.5175,-4.525,-4.5494,-4.5515,0,0,0,-4.4601,-4.4659,-4.4706,-4.4782,-4.4847,-4.4905,-4.496,-4.499,-4.5095,-4.4972,-4.5201,-4.5215,-4.5259,-4.5289,-4.5307,-4.5344,-4.5111,-4.511,-4.511,-4.4792,-4.4807,-4.4942,-4.4977,-4.5051,-4.5107,-4.5168,-4.5217,-4.5209,-4.5263,-4.5299,-4.5446,-4.5481,-4.5495,-4.5533,-4.5336,-4.5337,-4.5337,-4.5337,-4.5004,-4.5087,-4.5076,-4.5203,-4.5218,-4.5324,-4.5383,-4.5374,-4.5475,-4.542,-4.5459,-4.5395,-4.5518,-4.5552,-4.5342,-4.5341,-4.534,-4.534,-4.5339,-4.5127,-4.517,-4.5206,-4.5318,-4.5402,-4.5434,-4.5531,-4.5541,-4.5551,-4.559,-4.5628,-4.5627,-4.5625,-4.5608,-4.5609,-4.5609,-4.561,-4.561,-4.5611,-4.524,-4.5279,-4.536,-4.5441,-4.5491,-4.5559,-4.5618,-4.5667,-4.5724,-4.5723,-4.5724,-4.5709,-4.5529,-4.5481,-4.5618,-4.5617,-4.5616,-4.5615,-4.5615,-4.5444,-4.54,-4.5525,-4.5575,-4.5671,-4.5753,-4.5767,-4.5867,-4.5909,-4.5956,-4.5936,-4.5801,-4.5792,-4.5777,-4.5738,-4.5933,-4.5933,-4.5933,-4.5934,-4.5546,-4.5543,-4.5673,-4.5753,-4.5833,-4.5858,-4.5998,-4.6045,-4.6087,-4.6114,-4.6088,-4.6038,-4.6023,-4.6022,-4.6003,-4.5965,-4.6215,-4.6215,-4.6215,-4.567,-4.5676,-4.5793,-4.5835,-4.5911,-4.5975,-4.6106,-4.6197,-4.6236,-4.6227,-4.6134,-4.6123,-4.6042,-4.6015,-4.6,-4.5969,-4.5902,0,0]},{"header":{"parameterUnit":"m.s-1","parameterCategory":1,"la1":30.2992,"la2":30.254,"lo1":-89.0895,"lo2":-89.0443,"dy":0.0025,"dx":0.0025,"nx":19,"ny":19,"refTime":"2026-04-12T03:00:00:Z","depth":0,"parameterNumber":3,"parameterNumberName":"V-component_of_WINDS"},"data":[0,0,0,3.2975,3.2976,3.3025,3.3025,3.3092,3.3093,0,0,0,0,0,0,0,0,0,0,0,3.2964,3.2965,3.2975,3.2976,3.3025,3.3025,3.3092,3.3093,0,0,0,0,0,0,0,0,0,0,0,3.2964,3.2965,3.2965,3.2977,3.3025,3.3025,3.3092,3.3053,0,0,0,0,0,0,0,0,0,0,3.3005,3.2999,3.2964,3.2965,3.2977,3.3025,3.3025,3.3052,3.3056,3.3073,0,3.3089,0,3.3092,3.3098,3.3098,0,0,0,3.2973,3.2995,3.3005,3.2966,3.2977,3.3025,3.3002,3.3054,3.3059,3.3079,3.309,3.3092,3.3093,3.3098,3.3099,3.3207,3.3208,0,0,3.2971,3.2975,3.3002,3.3009,3.3002,3.3001,3.3004,3.3057,3.3069,3.309,3.3094,3.3095,3.3099,3.3099,3.3206,3.3207,0,0,0,3.2965,3.2973,3.2982,3.3006,3.3014,3.3002,3.3006,3.3067,3.3069,3.3094,3.3095,3.3099,3.31,3.3206,3.3207,3.3242,0,0,0,3.2963,3.297,3.298,3.2983,3.3014,3.3041,3.3015,3.3066,3.3072,3.3095,3.3099,3.3101,3.3205,3.3206,3.324,3.3258,0,0,0,3.296,3.2969,3.2977,3.2983,3.3005,3.304,3.3046,3.3067,3.3072,3.3098,3.3101,3.3205,3.3206,3.3238,3.3255,3.3288,0,0,0,3.2957,3.3008,3.2978,3.3035,3.3004,3.3062,3.3045,3.3088,3.3115,3.31,3.3205,3.3207,3.3237,3.3252,3.3286,3.3317,3.333,0,0,3.3023,3.3016,3.3049,3.3024,3.3089,3.3055,3.3124,3.3144,3.3143,3.3186,3.3188,3.3241,3.3254,3.3288,3.3405,3.3415,0,0,0,3.3071,3.3095,3.3112,3.3138,3.3155,3.3171,3.3181,3.3188,3.3224,3.3166,3.3262,3.327,3.3289,3.3304,3.3313,3.3329,3.3214,3.3214,3.3213,3.317,3.3166,3.3221,3.3224,3.3249,3.3259,3.3279,3.3291,3.3279,3.3302,3.3314,3.3386,3.3403,3.341,3.3427,3.3331,3.3331,3.3331,3.3331,3.3266,3.33,3.3284,3.3331,3.3327,3.3367,3.3379,3.3369,3.3405,3.3376,3.3393,3.336,3.3422,3.3436,3.3334,3.3333,3.3333,3.3333,3.3332,3.333,3.3345,3.3355,3.3392,3.3422,3.3422,3.3458,3.3453,3.3448,3.3465,3.3478,3.3477,3.3476,3.3472,3.3472,3.3472,3.3472,3.3473,3.3473,3.3393,3.3402,3.3433,3.3457,3.3473,3.3494,3.3505,3.3521,3.3537,3.353,3.353,3.3516,3.3429,3.3407,3.3477,3.3476,3.3475,3.3475,3.3475,3.3491,3.3468,3.3517,3.3533,3.3561,3.359,3.3584,3.3617,3.3629,3.3647,3.363,3.3566,3.3558,3.3551,3.3532,3.3631,3.3631,3.3631,3.3631,3.3545,3.3541,3.3589,3.3616,3.3642,3.3641,3.3696,3.3705,3.3711,3.3718,3.3704,3.3679,3.3672,3.3668,3.3658,3.3641,3.3765,3.3765,3.3765,3.3606,3.3604,3.3651,3.3657,3.3679,3.3697,3.3748,3.378,3.3782,3.377,3.3724,3.3719,3.3679,3.3666,3.3653,3.3638,3.3606,0,0]}]]